RH
75 81 84 88 92 88 90 85 81 77 78 81 79 82 83 85 83 85 86 87 88 90 88 88 88 81 62 45 43 44 40 37 35 34 35 36 38 40 42 44 43 41 44 50 53 56 60 59 61
77 80 81 83 83 89 86 83 79 76 79 81 81 83 83 86 83 85 86 87 87 87 83 81 84 65 49 43 43 40 39 35 34 36 38 40 41 41 43 45 46 44 43 47 53 53 59 62 63
76 83 86 85 86 82 80 76 78 78 77 79 80 83 81 82 80 81 81 82 81 79 76 76 68 48 44 42 40 39 37 33 36 41 43 45 45 48 51 50 46 43 45 48 49 56 61 63 66
76 77 80 85 77 73 71 71 71 75 76 76 77 79 79 76 76 76 76 75 71 69 67 63 50 42 41 39 39 37 35 37 39 42 45 48 53 57 63 60 58 52 51 51 50 52 59 62 65
76 71 78 74 69 65 69 71 69 67 73 76 74 74 77 73 72 71 70 66 63 60 56 49 43 39 39 39 38 38 39 39 41 45 49 53 57 63 69 67 63 63 62 60 55 54 56 61 64
78 75 74 72 65 65 62 63 60 62 67 73 69 70 74 70 68 66 62 59 56 53 50 45 40 39 38 38 39 40 40 40 42 48 51 55 55 56 57 59 56 55 58 57 59 61 63 64 65
79 79 74 68 62 57 56 50 56 63 65 69 65 68 69 67 63 60 57 54 52 49 46 42 38 37 38 39 40 41 41 42 46 48 51 52 54 51 48 47 45 46 46 47 44 48 50 50 49
73 74 75 60 62 58 57 54 50 54 55 62 64 64 62 62 60 58 55 53 50 46 43 42 38 36 37 39 41 42 42 44 46 46 49 49 50 46 47 44 42 40 41 42 49 52 47 43 41
75 73 68 57 60 56 57 54 53 47 44 54 56 56 58 58 54 53 53 52 49 45 43 43 38 37 37 38 39 39 40 42 44 43 47 50 58 59 60 49 47 47 46 49 53 49 43 38 36
75 70 59 50 52 53 55 55 57 52 41 46 51 52 52 54 49 49 50 50 47 44 41 41 41 40 38 37 37 39 40 42 46 45 49 56 59 64 59 54 51 49 47 53 53 48 41 36 33
68 65 57 50 48 48 53 59 58 53 43 31 38 43 44 46 46 47 47 49 45 43 42 39 40 41 39 36 35 37 40 45 46 47 53 60 65 62 57 53 54 50 48 46 47 42 45 41 31
59 55 56 50 43 44 49 57 64 54 46 44 34 31 39 38 40 42 45 47 43 43 40 40 40 38 35 34 33 34 39 43 45 45 53 56 58 55 53 51 51 47 45 46 46 45 47 42 37
47 52 56 51 42 39 44 53 58 55 56 54 47 28 35 38 41 43 44 46 41 42 38 38 38 35 33 32 32 32 34 36 40 43 49 53 54 51 54 52 51 50 52 51 51 45 45 44 43
36 42 48 46 41 38 42 51 53 60 61 65 57 36 28 37 37 40 40 39 36 38 36 37 34 33 32 32 32 32 33 33 34 37 46 49 51 50 52 55 55 60 61 61 51 49 45 42 41
37 39 43 42 37 37 41 52 54 61 62 64 65 50 34 35 37 35 33 33 32 33 35 33 34 32 32 32 31 31 32 33 35 39 41 49 55 52 53 53 53 52 50 50 50 46 42 38 37
36 36 39 40 36 36 41 48 51 58 60 63 62 59 43 32 35 33 31 31 31 32 32 30 32 31 31 31 31 32 30 31 36 40 37 52 50 46 49 51 51 48 48 46 44 42 41 39 37
33 35 38 39 37 33 38 39 42 51 59 62 57 55 48 40 33 32 30 30 30 31 32 28 28 28 28 29 29 29 30 32 34 40 47 47 49 50 58 58 52 49 44 39 40 40 38 36 33
30 31 35 37 36 36 36 39 44 52 56 60 62 57 50 40 25 28 28 30 29 31 30 31 29 27 28 30 30 32 31 35 39 43 43 48 51 59 60 52 47 46 38 37 37 35 36 36 27
30 32 34 36 36 33 34 38 47 50 58 59 60 55 52 39 22 29 29 30 31 29 30 29 30 30 29 29 30 32 36 39 40 40 40 43 45 47 49 48 47 43 36 38 42 45 49 44 38
24 29 32 36 35 33 29 29 40 46 46 52 59 51 56 46 35 25 27 28 28 26 25 27 26 28 26 29 31 32 35 37 35 36 37 38 36 40 41 41 41 38 37 46 53 52 52 49 48
20 24 29 34 35 34 34 33 34 43 49 53 58 59 51 47 39 30 22 22 24 23 23 23 22 21 23 25 29 30 33 32 31 30 32 34 35 35 38 36 36 37 45 51 50 50 55 51 50
17 20 26 32 35 37 38 36 37 43 48 51 54 56 46 44 39 34 28 24 20 19 20 21 21 20 22 26 26 26 28 28 28 29 31 36 38 36 37 34 34 42 47 49 50 51 51 49 45
12 17 24 29 34 35 36 32 28 38 50 50 52 44 47 41 39 36 27 23 23 16 16 18 18 20 22 24 24 24 26 29 30 32 33 34 37 36 35 33 38 43 46 52 51 49 48 46 44
11 13 20 28 31 34 27 31 26 34 39 45 48 43 45 45 41 34 26 27 28 29 20 19 18 17 19 21 23 23 24 26 31 32 31 31 33 34 32 33 41 45 51 51 50 47 48 46 44
12 14 22 26 31 25 25 30 21 22 25 34 40 38 41 42 42 39 36 36 37 33 32 25 23 22 22 22 23 24 25 26 29 29 28 30 30 30 30 35 42 48 51 49 50 47 47 45 44
13 14 21 25 25 23 25 24 21 20 25 33 34 37 39 43 43 45 48 42 40 40 38 34 30 25 25 25 25 26 26 26 27 29 30 29 28 27 28 36 42 46 48 51 49 47 47 46 45
15 15 11 16 19 20 22 18 19 20 24 31 32 36 37 39 43 41 46 48 44 42 39 33 32 34 33 30 28 29 31 30 28 27 28 27 27 25 30 37 42 44 49 52 50 47 45 45 45
14 12 16 18 20 21 18 16 18 17 19 25 30 33 34 35 39 43 44 46 47 44 37 34 35 36 38 35 35 35 39 38 32 30 29 27 24 25 29 39 42 44 49 51 51 49 49 47 46
16 16 16 16 17 19 18 14 12 12 14 18 24 30 32 30 32 36 40 43 46 49 44 34 36 38 39 39 40 38 37 37 36 33 31 26 26 25 28 39 42 42 46 50 51 50 50 51 49
16 15 16 17 16 16 16 12 9 9 9 13 19 25 29 27 26 28 30 35 39 44 46 41 38 39 36 38 42 40 39 39 38 33 29 26 26 26 29 36 40 41 45 48 51 49 50 55 59